FENGYUN 1C DEB

Satellite information

Favourite Embed

Satellite Type and Status

DEBRISIN ORBIT

Key statistics

Satellite FENGYUN 1C DEB at a glance.

Uptime

9664

Days in orbit

Revolutions

≈ 14.2

Per day

Orbit

SSO

Sun Synchronous Orbit

Inclination

98.6

Latest

Satellite identification and parameters

Extended collection of information and parameters for FENGYUN 1C DEB.

Object identification

Identified? True

Debris? True

Object name: FENGYUN 1C DEB

International designator: 1999-025CLS

Object number (NORAD): 31915

Object ID (CCSDS): 31915

Country: PEOPLES REPUBLIC OF CHINA (PRC)

Current information (Y/N): Y

RCS size: SMALL

Orbital parameters

Period: 101.699 minutes

Inclination: 98.6362 deg

SMA: 7217.252 km

Apoapsis: 913.296 km

Periapsis: 764.937 km

RAAN: 314.6744 deg

Eccentricy: 0.01027811

Argument of periapsis: 58.2885 deg

Mean anomaly: 302.826 deg

Mean motion: 14.15940483 rev/day

Mean motion (dot): 0.0000234 rev/day2

B* drag term: 0.0011483534 1/REarth

Two-line elements (TLE)

Creation date: Oct. 22, 2025, 5:40 p.m.

Reference frame: TEME

Reference center: EARTH

Epoch: Oct. 22, 2025, 6:44 a.m. UTC

TLE line 0: 0 FENGYUN 1C DEB

TLE line 1: 1 31915U 99025CLS 25295.28124031 .00002340 00000-0 11484-2 0 9997

TLE line 2: 2 31915 98.6362 314.6744 0102781 58.2885 302.8260 14.15940483633797

Live tracking on map

Real-time ground track for satellite FENGYUN 1C DEB.

In-orbit conjunctions

A list of the most updated potential collisions computed for object FENGYUN 1C DEB.

Target Orbit TCA Probability of collision Miss distance Type
COSMOS 1275 DEB LEO 2024-08-15 23:13:40 0.0002677776 79.0 (m) DEBRIS
FENGYUN 1C DEB SSO 2024-08-10 02:07:14 0.0003541475 96.0 (m) DEBRIS

Associated space launch

Chinese polar orbiting meteorological satellite

FENGYUN 1C DEB was lifted into orbit during the mission ‘Long March 4B | Feng Yun 1C’, on board a Long March 4B space rocket.

The launch took place on May 10, 1999, 1:33 a.m. from Launch Complex 7.

For more information about the launch, click the button.

Launch to space Long March 4B | Feng Yun 1C
Long March 4B | Feng Yun 1C

Agency: N/A

Status: Launch Successful

Launch date: May 10, 1999, 1:33 a.m. UTC

Rocket: Long March 4B

Launch pad: Launch Complex 7

Location: Taiyuan Satellite Launch Center, People's Republic of China

...

Latest news about this satellite

There are no fresh news available about this satellite. Check back as we update our databases every day.


Newsletter sign-up

Weekly statistics, charts and insights to help you stay on top of the space industry.